Location: Godiavel Galaoual
(15.2485°N, 12.6604°W)
Time: 04:26:07
(UTC+00:00)

N. Korean satellite - Visible Passes

Search period start: 13 May 2021 00:00
Search period end: 23 May 2021 00:00
Orbit: 450 x 501 km, 97.2° (Epoch: 12 May)

Date Brightness Start Highest point End Pass type
(mag) Time Alt. Az. Time Alt. Az. Time Alt. Az.
14 May 6.7 05:52:52 10° NNE 05:56:13 71° E 05:59:36 10° S visible
15 May 8.9 05:26:23 10° NE 05:29:08 23° E 05:31:54 10° SSE visible
18 May 8.0 05:37:50 10° NNE 05:41:00 37° E 05:44:11 10° SSE visible
19 May 9.5 05:12:07 10° ENE 05:13:52 13° E 05:15:39 10° SE visible
21 May 7.0 05:49:27 10° NNE 05:52:50 62° E 05:56:14 10° S visible
22 May 9.1 05:23:04 10° NE 05:25:43 21° E 05:28:23 10° SSE visible
